Bloomington, IN

5:35 AM EST on December 16, 2019 (GMT -0500)
Monroe County

Weather History for KBMG - August, 2019

Change the Weather History Date:

Saturday, August 10, 2019

  Actual Average Record
Temperature  
Mean Temperature 71 °F 74 °F  
Max Temperature 84 °F 85 °F 96 °F (2010)
Min Temperature 57 °F 62 °F 53 °F (1999)
Degree Days  
Heating Degree Days 0 0  
Month to date heating degree days 0 0  
Since 1 June heating degree days 14 17  
Since 1 July heating degree days 0 2  
Cooling Degree Days 6 9  
Month to date cooling degree days 89 90  
Year to date cooling degree days 796 656  
Since 1 June cooling degree days 665 574  
Growing Degree Days 20 (Base 50)    
Moisture  
Dew Point 61 °F    
Average Humidity 74    
Maximum Humidity 100    
Minimum Humidity 47    
Precipitation  
Precipitation 0.00 in 0.10 in 1.50 in (2016)
Month to date precipitation 0.62 1.09  
Year to date precipitation 32.66 30.76  
Sea Level Pressure  
Sea Level Pressure 29.99 in    
Wind  
Wind Speed 3 mph (NNE)    
Max Wind Speed 9 mph    
Max Gust Speed 14 mph    
Visibility 10 miles    
Events      
T = Trace of Precipitation, MM = Missing Value Source: NWS Daily Summary

Daily Weather History Graph

Daily Weather History Graph

Search for Another Location

Airport or City:

Astronomy

Aug. 10, 2019 Rise Set
Actual Time 6:54 AM EDT 8:48 PM EDT
Civil Twilight 6:25 AM EDT 9:17 PM EDT
Nautical Twilight 5:50 AM EDT 9:52 PM EDT
Astronomical Twilight 5:12 AM EDT 10:30 PM EDT
Moon 5:29 PM EDT (8/10) 2:31 AM EDT (8/10)
Length of Visible Light 14h 51m
Length of Day
13h 53m
Waxing Gibbous, 79% of the Moon is Illuminated
Aug 10
Waxing Gibbous
Aug 15
Full
Aug 23
Last Quarter
Aug 30
New
Sep 5
First Quarter

Hourly Weather History & Observations

Time (EDT) Temp. Heat Index Dew Point Humidity Pressure Visibility Wind Dir Wind Speed Gust Speed Precip Events Conditions
12:53 AM 63.0 °F - 62.1 °F 97% 29.96 in 10.0 mi Calm Calm - N/A   Clear
1:53 AM 63.0 °F - 63.0 °F 100% 29.97 in 10.0 mi Calm Calm - N/A   Clear
2:53 AM 62.1 °F - 62.1 °F 100% 29.95 in 9.0 mi Calm Calm - N/A   Clear
3:53 AM 61.0 °F - 61.0 °F 100% 29.95 in 9.0 mi Calm Calm - N/A   Clear
4:53 AM 60.1 °F - 60.1 °F 100% 29.95 in 10.0 mi Calm Calm - N/A   Clear
5:53 AM 59.0 °F - 59.0 °F 100% 29.96 in 10.0 mi Calm Calm - N/A   Clear
6:53 AM 57.9 °F - 57.9 °F 100% 29.97 in 6.0 mi Calm Calm - N/A   Clear
7:53 AM 61.0 °F - 61.0 °F 100% 29.99 in 10.0 mi Calm Calm - N/A   Clear
8:53 AM 68.0 °F - 60.1 °F 76% 30.01 in 10.0 mi East 5.8 mph - N/A   Clear
9:53 AM 73.0 °F - 57.9 °F 59% 30.03 in 10.0 mi ENE 8.1 mph - N/A   Clear
10:53 AM 75.9 °F - 57.0 °F 52% 30.03 in 10.0 mi ESE 5.8 mph - N/A   Clear
11:53 AM 78.1 °F - 57.9 °F 50% 30.02 in 10.0 mi Variable 6.9 mph - N/A   Clear
12:53 PM 79.0 °F - 61.0 °F 54% 30.01 in 10.0 mi Variable 4.6 mph - N/A   Clear
1:53 PM 80.1 °F 81.2 °F 62.1 °F 54% 30.00 in 10.0 mi Calm Calm - N/A   Clear
2:53 PM 81.0 °F 81.6 °F 60.1 °F 49% 29.99 in 10.0 mi North 3.5 mph - N/A   Clear
3:53 PM 82.9 °F 83.7 °F 62.1 °F 49% 29.98 in 10.0 mi Variable 5.8 mph - N/A   Clear
4:53 PM 82.9 °F 83.2 °F 60.1 °F 46% 29.98 in 10.0 mi NNW 9.2 mph - N/A   Clear
5:53 PM 82.0 °F 83.0 °F 62.1 °F 51% 29.97 in 10.0 mi North 6.9 mph - N/A   Clear
6:53 PM 82.0 °F 82.4 °F 60.1 °F 47% 29.97 in 10.0 mi North 6.9 mph - N/A   Clear
7:53 PM 78.1 °F - 64.0 °F 62% 29.98 in 10.0 mi North 4.6 mph - N/A   Clear
8:53 PM 69.1 °F - 66.0 °F 90% 29.98 in 10.0 mi Calm Calm - N/A   Clear
9:53 PM 66.0 °F - 64.9 °F 96% 29.99 in 10.0 mi Calm Calm - N/A   Clear
10:53 PM 64.0 °F - 63.0 °F 96% 30.01 in 10.0 mi Calm Calm - N/A   Clear
11:53 PM 63.0 °F - 62.1 °F 97% 30.01 in 10.0 mi Calm Calm - N/A   Clear